N8VDS-10 Weather Reports


Display with metric or nautical units.
time (UTC)temp
F
wind
direction
speed
MPH
gust
MPH
rain 1hr
in
rain 24hr
in
rain mn
in
humidity
%
barometer
mb
20260510192057 56 238 0.0 2.0 0.00 0.00 0.00 33 1021.9
20260510191553 55 265 7.0 10.0 0.00 0.00 0.00 32 1022.0
20260510191051 56 287 13.0 19.0 0.00 0.00 0.00 32 1022.0
20260510190548 55 254 3.0 3.0 0.00 0.00 0.00 33 1022.0
20260510190046 55 238 4.0 5.0 0.00 0.00 0.00 32 1022.0
20260510185542 56 221 11.0 14.0 0.00 0.00 0.00 32 1022.0
20260510185039 57 287 10.0 19.0 0.00 0.00 0.00 32 1022.0
20260510184537 57 258 11.0 15.0 0.00 0.00 0.00 32 1022.2
20260510184031 56 197 5.0 7.0 0.00 0.00 0.00 33 1021.9
20260510183527 56 183 4.0 5.0 0.00 0.00 0.00 31 1021.9
20260510183023 57 214 2.0 3.0 0.00 0.00 0.00 32 1021.7
20260510182514 58 215 4.0 5.0 0.00 0.00 0.00 33 1021.8
20260510182009 59 191 2.0 2.0 0.00 0.00 0.00 30 1021.7
20260510181508 56 65 1.0 2.0 0.00 0.00 0.00 31 1021.8
20260510181003 55 302 3.0 5.0 0.00 0.00 0.00 34 1021.6
20260510180500 57 217 8.0 10.0 0.00 0.00 0.00 32 1021.5
20260510175957 56 244 7.0 9.0 0.00 0.00 0.00 31 1021.5
20260510175453 55 288 12.0 17.0 0.00 0.00 0.00 31 1021.5
20260510174948 55 290 5.0 7.0 0.00 0.00 0.00 33 1021.6
20260510174447 56 289 5.0 7.0 0.00 0.00 0.00 33 1021.5
20260510173943 57 216 2.0 2.0 0.00 0.00 0.00 33 1021.4
20260510173439 55 204 0.0 2.0 0.00 0.00 0.00 34 1021.4
20260510172936 55 286 3.0 3.0 0.00 0.00 0.00 33 1021.5
20260510172431 55 242 6.0 7.0 0.00 0.00 0.00 33 1021.4
20260510171928 55 215 4.0 5.0 0.00 0.00 0.00 34 1021.5
20260510171425 55 220 2.0 3.0 0.00 0.00 0.00 34 1021.7
20260510170921 56 207 4.0 5.0 0.00 0.00 0.00 34 1021.9
20260510170418 56 244 6.0 7.0 0.00 0.00 0.00 35 1021.7
20260510165913 56 262 9.0 12.0 0.00 0.00 0.00 35 1021.6
20260510165410 55 227 3.0 3.0 0.00 0.00 0.00 34 1021.7
20260510164908 55 4 7.0 9.0 0.00 0.00 0.00 33 1021.9
20260510164405 56 7 4.0 7.0 0.00 0.00 0.00 33 1021.8
20260510163904 53 317 7.0 10.0 0.00 0.00 0.00 35 1021.7
20260510163402 54 282 5.0 5.0 0.00 0.00 0.00 34 1021.8
20260510162901 55 215 2.0 3.0 0.00 0.00 0.00 34 1021.7
20260510162359 55 257 3.0 7.0 0.00 0.00 0.00 34 1021.8
20260510161854 54 284 4.0 7.0 0.00 0.00 0.00 35 1021.6
20260510161350 55 314 1.0 2.0 0.00 0.00 0.00 33 1021.6
20260510160847 55 289 7.0 12.0 0.00 0.00 0.00 34 1021.8
20260510160345 54 278 7.0 10.0 0.00 0.00 0.00 35 1021.8
20260510155838 54 240 5.0 7.0 0.00 0.00 0.00 34 1021.7
20260510155336 53 246 4.0 7.0 0.00 0.00 0.00 35 1021.8
20260510154832 53 31 6.0 9.0 0.00 0.00 0.00 36 1021.5
20260510154327 53 313 8.0 10.0 0.00 0.00 0.00 37 1021.5
20260510153821 53 236 7.0 7.0 0.00 0.00 0.00 35 1021.6
20260510153318 53 284 7.0 10.0 0.00 0.00 0.00 38 1021.5
20260510152814 52 199 2.0 3.0 0.00 0.00 0.00 39 1021.3
20260510152311 53 220 13.0 15.0 0.00 0.00 0.00 38 1021.3
20260510151808 52 17 7.0 9.0 0.00 0.00 0.00 38 1021.5
20260510151307 52 304 7.0 9.0 0.00 0.00 0.00 38 1021.5
20260510150802 51 311 4.0 7.0 0.00 0.00 0.00 40 1021.2
20260510150258 51 292 6.0 9.0 0.00 0.00 0.00 40 1021.3
20260510145754 53 255 9.0 10.0 0.00 0.00 0.00 40 1021.2
20260510145251 52 218 4.0 5.0 0.00 0.00 0.00 38 1021.3
20260510144747 51 281 8.0 9.0 0.00 0.00 0.00 41 1021.1
20260510144244 51 270 5.0 5.0 0.00 0.00 0.00 41 1021.1
20260510143743 50 280 2.0 3.0 0.00 0.00 0.00 43 1021.1
20260510143240 50 268 8.0 10.0 0.00 0.00 0.00 41 1021.1
20260510142736 50 251 9.0 12.0 0.00 0.00 0.00 42 1021.0
20260510142233 51 271 4.0 5.0 0.00 0.00 0.00 42 1020.8
20260510141730 50 127 5.0 7.0 0.00 0.00 0.00 43 1020.9
20260510141229 51 225 3.0 5.0 0.00 0.00 0.00 41 1020.9
20260510140725 50 254 9.0 10.0 0.00 0.00 0.00 41 1021.1
20260510140220 49 299 7.0 10.0 0.00 0.00 0.00 43 1021.2
20260510135714 50 240 9.0 10.0 0.00 0.00 0.00 42 1020.9
20260510135210 49 210 2.0 5.0 0.00 0.00 0.00 43 1021.0
20260510134708 50 331 4.0 5.0 0.00 0.00 0.00 41 1020.9
20260510134205 50 297 4.0 9.0 0.00 0.00 0.00 42 1020.9
20260510133701 49 206 0.0 0.0 0.00 0.00 0.00 45 1020.8
20260510133156 48 278 4.0 5.0 0.00 0.00 0.00 44 1020.7
20260510132653 49 200 1.0 2.0 0.00 0.00 0.00 42 1020.7
20260510132150 49 272 6.0 7.0 0.00 0.00 0.00 43 1020.8
20260510131648 48 203 1.0 2.0 0.00 0.00 0.00 45 1020.5
20260510131145 49 258 5.0 10.0 0.00 0.00 0.00 42 1020.3
20260510130641 49 192 0.0 0.0 0.00 0.00 0.00 45 1020.4
20260510130138 47 209 0.0 0.0 0.00 0.00 0.00 47 1020.3
20260510125629 48 173 0.0 0.0 0.00 0.00 0.00 45 1020.4
20260510125125 48 197 1.0 2.0 0.00 0.00 0.00 46 1020.5
20260510124622 49 187 1.0 2.0 0.00 0.00 0.00 49 1020.4
20260510124119 47 184 0.0 0.0 0.00 0.00 0.00 52 1020.2
20260510123615 46 237 2.0 3.0 0.00 0.00 0.00 51 1020.4
20260510123111 46 286 3.0 3.0 0.00 0.00 0.00 54 1020.3
20260510122607 45 248 1.0 5.0 0.00 0.00 0.00 59 1020.3
20260510122103 45 253 2.0 3.0 0.00 0.00 0.00 60 1020.1
20260510121600 44 228 2.0 3.0 0.00 0.00 0.00 61 1020.1
20260510121057 44 196 3.0 3.0 0.00 0.00 0.00 62 1019.7
20260510120556 44 205 1.0 2.0 0.00 0.00 0.00 61 1020.0
20260510120056 43 213 1.0 2.0 0.00 0.00 0.00 62 1019.8
20260510115553 42 196 0.0 0.0 0.00 0.00 0.00 63 1019.7
20260510115050 42 233 1.0 2.0 0.00 0.00 0.00 63 1019.8
20260510114546 41 210 2.0 2.0 0.00 0.00 0.00 65 1019.5
20260510114042 41 198 0.0 2.0 0.00 0.00 0.00 67 1019.5
20260510113537 41 204 0.0 0.0 0.00 0.00 0.00 68 1019.5
20260510113035 41 214 0.0 0.0 0.00 0.00 0.00 68 1019.3
20260510112531 41 206 0.0 0.0 0.00 0.00 0.00 68 1019.5
20260510112028 40 201 0.0 0.0 0.00 0.00 0.00 68 1019.4
20260510111525 39 199 0.0 0.0 0.00 0.00 0.00 72 1019.4
20260510111020 38 202 0.0 0.0 0.00 0.00 0.00 74 1019.2
20260510110517 37 203 0.0 0.0 0.00 0.00 0.00 76 1019.1
20260510110013 37 200 0.0 0.0 0.00 0.00 0.00 76 1019.1
20260510105508 37 197 0.0 0.0 0.00 0.00 0.00 75 1019.0
20260510105004 36 197 0.0 0.0 0.00 0.00 0.00 74 1019.1
20260510104500 36 193 0.0 0.0 0.00 0.00 0.00 77 1019.0
20260510103957 36 193 0.0 0.0 0.00 0.00 0.00 77 1018.8
20260510103454 36 193 0.0 0.0 0.00 0.00 0.00 77 1018.8
20260510102949 37 193 0.0 0.0 0.00 0.00 0.00 77 1018.6
20260510102446 37 193 0.0 0.0 0.00 0.00 0.00 77 1018.5
20260510101942 36 193 0.0 0.0 0.00 0.00 0.00 76 1018.5
20260510101440 37 193 0.0 0.0 0.00 0.00 0.00 76 1018.4
20260510100938 37 193 0.0 0.0 0.00 0.00 0.00 75 1018.4
20260510100434 36 195 0.0 0.0 0.00 0.00 0.00 75 1018.5
20260510095931 36 201 0.0 0.0 0.00 0.00 0.00 77 1018.5
20260510095426 36 202 0.0 0.0 0.00 0.00 0.00 77 1018.2
20260510094926 36 202 0.0 0.0 0.00 0.00 0.00 75 1018.2
20260510094420 37 202 0.0 0.0 0.00 0.00 0.00 75 1018.1
20260510093917 37 202 0.0 0.0 0.00 0.00 0.00 73 1018.1
20260510093412 37 202 0.0 0.0 0.00 0.00 0.00 74 1018.1
20260510092909 37 202 0.0 0.0 0.00 0.00 0.00 74 1018.0
20260510092407 38 202 0.0 0.0 0.00 0.00 0.00 73 1018.1
20260510091906 38 202 0.0 0.0 0.00 0.00 0.00 73 1017.9
20260510091404 38 200 0.0 0.0 0.00 0.00 0.00 73 1017.8
20260510090900 38 195 0.0 0.0 0.00 0.00 0.00 72 1017.6
20260510090357 38 195 0.0 0.0 0.00 0.00 0.00 70 1017.6
20260510085853 38 195 0.0 0.0 0.00 0.00 0.00 70 1017.6
20260510085348 39 195 0.0 0.0 0.00 0.00 0.00 69 1017.6
20260510084843 39 195 0.0 0.0 0.00 0.00 0.00 68 1017.4
20260510084341 39 195 0.0 0.0 0.00 0.00 0.00 67 1017.3
20260510083838 39 196 0.0 0.0 0.00 0.00 0.00 68 1017.3
20260510083334 40 203 0.0 0.0 0.00 0.00 0.00 67 1017.2
20260510082829 40 203 0.0 0.0 0.00 0.00 0.00 66 1017.3
20260510082327 40 203 0.0 0.0 0.00 0.00 0.00 66 1017.0
20260510081826 41 198 0.0 0.0 0.00 0.00 0.00 64 1016.9
20260510081322 41 191 0.0 0.0 0.00 0.00 0.00 63 1017.0
20260510080818 42 191 0.0 0.0 0.00 0.00 0.00 63 1016.7
20260510080313 42 213 2.0 2.0 0.00 0.00 0.00 60 1016.9
20260510075811 42 210 0.0 0.0 0.00 0.00 0.00 59 1016.8
20260510075308 43 262 0.0 2.0 0.00 0.00 0.00 59 1016.7
20260510074805 43 206 0.0 0.0 0.00 0.00 0.00 58 1016.5
20260510074302 43 210 0.0 2.0 0.00 0.00 0.00 57 1016.6
20260510073757 43 297 1.0 2.0 0.00 0.00 0.00 57 1016.4
20260510073254 44 311 1.0 2.0 0.00 0.00 0.00 57 1016.4
20260510072749 44 213 0.0 0.0 0.00 0.00 0.00 56 1016.2
20260510072246 44 208 0.0 0.0 0.00 0.00 0.00 56 1016.4
20260510071742 44 194 0.0 0.0 0.00 0.00 0.00 56 1016.1
20260510071239 44 325 4.0 9.0 0.00 0.00 0.00 55 1016.1
20260510070738 45 225 1.0 2.0 0.00 0.00 0.00 55 1016.0
20260510070235 45 315 1.0 2.0 0.00 0.00 0.00 54 1015.9
20260510065735 45 331 3.0 5.0 0.00 0.00 0.00 54 1015.8
20260510065231 45 286 2.0 3.0 0.00 0.00 0.00 55 1015.8
20260510064728 45 248 3.0 3.0 0.00 0.00 0.00 55 1015.7
20260510064226 45 327 2.0 5.0 0.00 0.00 0.00 55 1015.6
20260510063722 45 287 2.0 3.0 0.00 0.00 0.00 55 1015.3
20260510063218 45 267 1.0 2.0 0.00 0.00 0.00 57 1015.2
20260510062715 46 313 2.0 3.0 0.00 0.00 0.00 57 1015.3
20260510062211 46 299 2.0 3.0 0.00 0.00 0.00 57 1015.2
20260510061706 46 307 2.0 3.0 0.00 0.00 0.00 57 1015.2
20260510061204 46 224 3.0 5.0 0.00 0.00 0.00 57 1015.2
20260510060700 46 219 1.0 2.0 0.00 0.00 0.00 57 1015.0
20260510060157 47 213 2.0 3.0 0.00 0.00 0.00 57 1015.1
20260510055653 47 335 2.0 3.0 0.00 0.00 0.00 57 1014.9
20260510055152 47 215 1.0 2.0 0.00 0.00 0.00 57 1015.0
20260510054647 47 12 2.0 2.0 0.00 0.00 0.00 57 1014.7
20260510054143 48 279 2.0 2.0 0.00 0.00 0.00 56 1014.7
20260510053641 48 303 2.0 3.0 0.00 0.00 0.00 55 1014.7
20260510053139 48 331 3.0 3.0 0.00 0.00 0.00 55 1014.7
20260510052635 48 259 2.0 3.0 0.00 0.00 0.00 55 1014.4
20260510052131 48 118 0.0 0.0 0.00 0.00 0.00 56 1014.4
20260510051626 49 125 2.0 3.0 0.00 0.00 0.00 56 1014.4
20260510051123 49 198 2.0 2.0 0.00 0.00 0.00 55 1014.5
20260510050621 50 319 6.0 10.0 0.00 0.00 0.00 55 1014.4
20260510050118 49 339 13.0 19.0 0.00 0.00 0.00 56 1014.2
20260510045615 50 177 0.0 2.0 0.00 0.00 0.00 57 1014.0
20260510045111 50 337 1.0 3.0 0.00 0.00 0.00 57 1014.0
20260510044607 50 224 2.0 2.0 0.00 0.00 0.00 57 1014.0
20260510044105 50 234 1.0 2.0 0.00 0.00 0.00 56 1013.8
20260510043600 50 97 3.0 5.0 0.00 0.00 0.00 56 1013.6
20260510043056 50 216 0.0 0.0 0.00 0.00 0.00 57 1013.6
20260510042555 50 317 0.0 2.0 0.00 0.00 0.00 58 1013.5
20260510042051 50 210 0.0 0.0 0.00 0.00 0.00 58 1013.2
20260510041548 50 201 0.0 0.0 0.00 0.00 0.00 57 1013.3
20260510041045 51 194 0.0 0.0 0.00 0.00 0.00 56 1013.1
20260510040542 51 199 0.0 0.0 0.00 0.00 0.00 56 1012.9
20260510040038 51 199 0.0 0.0 0.00 0.00 0.00 56 1012.9
20260510035534 52 202 0.0 0.0 0.00 0.00 0.00 55 1013.0
20260510035034 52 234 0.0 0.0 0.00 0.00 0.00 55 1012.9
20260510034533 52 6 2.0 3.0 0.00 0.00 0.00 56 1012.8
20260510034029 52 189 0.0 0.0 0.00 0.00 0.00 56 1012.5
20260510033524 52 276 1.0 2.0 0.00 0.00 0.00 56 1012.6
20260510033023 53 182 0.0 0.0 0.00 0.00 0.00 55 1012.6
20260510032519 53 162 0.0 0.0 0.00 0.00 0.00 55 1012.6
20260510032014 53 195 0.0 0.0 0.00 0.00 0.00 54 1012.5
20260510031510 53 199 0.0 0.0 0.00 0.00 0.00 53 1012.3
20260510031006 54 208 0.0 0.0 0.00 0.00 0.00 52 1012.1
20260510030501 54 338 6.0 9.0 0.00 0.00 0.00 51 1012.1
20260510025959 54 89 0.0 2.0 0.00 0.00 0.00 51 1012.0
20260510025456 55 166 0.0 0.0 0.00 0.00 0.00 50 1012.1
20260510024954 55 246 0.0 0.0 0.00 0.00 0.00 48 1011.8
20260510024450 55 295 1.0 2.0 0.00 0.00 0.00 48 1012.0
20260510023945 56 189 2.0 3.0 0.00 0.00 0.00 47 1011.8
20260510023442 56 200 3.0 3.0 0.00 0.00 0.00 47 1011.7
20260510022939 57 200 0.0 0.0 0.00 0.00 0.00 47 1011.6
20260510022438 57 31 2.0 3.0 0.00 0.00 0.00 46 1011.7
20260510021938 57 195 0.0 0.0 0.00 0.00 0.00 47 1011.5
20260510021436 57 266 2.0 3.0 0.00 0.00 0.00 47 1011.4
20260510020932 57 297 5.0 7.0 0.00 0.00 0.00 46 1011.2
20260510020427 57 250 4.0 5.0 0.00 0.00 0.00 46 1011.2
20260510015923 58 225 3.0 5.0 0.00 0.00 0.00 46 1011.1
20260510015419 58 203 4.0 5.0 0.00 0.00 0.00 45 1010.6
20260510014914 58 287 6.0 9.0 0.00 0.00 0.00 45 1010.5
20260510014412 58 184 4.0 5.0 0.00 0.00 0.00 44 1010.6
20260510013908 58 328 2.0 3.0 0.00 0.00 0.00 45 1010.3
20260510013403 58 262 3.0 5.0 0.00 0.00 0.00 44 1010.2
20260510012858 58 339 6.0 7.0 0.00 0.00 0.00 43 1009.9
20260510012353 59 187 4.0 7.0 0.00 0.00 0.00 43 1009.8
20260510011848 59 13 2.0 3.0 0.00 0.00 0.00 43 1009.8
20260510011344 59 34 4.0 10.0 0.00 0.00 0.00 42 1009.5
20260510010840 59 165 3.0 5.0 0.00 0.00 0.00 42 1009.6
20260510010338 59 197 1.0 2.0 0.00 0.00 0.00 41 1009.3
20260510005834 60 200 6.0 9.0 0.00 0.00 0.00 41 1009.3
20260510005330 60 299 5.0 7.0 0.00 0.00 0.00 41 1009.3
20260510004828 60 33 10.0 12.0 0.00 0.00 0.00 40 1009.0
20260510004326 61 301 7.0 12.0 0.00 0.00 0.00 39 1008.7
20260510003823 62 338 7.0 9.0 0.00 0.00 0.00 39 1008.6
20260510003320 62 325 9.0 12.0 0.00 0.00 0.00 38 1008.3
20260510002819 63 258 3.0 3.0 0.00 0.00 0.00 39 1008.4
20260510002316 63 242 6.0 9.0 0.00 0.00 0.00 39 1008.1
20260510001812 63 205 4.0 5.0 0.00 0.00 0.00 39 1007.9
20260510001311 63 273 5.0 7.0 0.00 0.00 0.00 39 1007.8
20260510000806 63 268 3.0 3.0 0.00 0.00 0.00 40 1008.1
20260510000305 63 247 1.0 2.0 0.00 0.00 0.00 40 1007.8
20260509235801 63 262 2.0 3.0 0.00 0.00 0.00 40 1007.6
20260509235257 63 225 9.0 12.0 0.00 0.00 0.00 40 1007.5
20260509234753 64 276 4.0 5.0 0.00 0.00 0.00 40 1007.5
20260509234250 64 202 8.0 12.0 0.00 0.00 0.00 39 1007.3
20260509233749 64 258 6.0 9.0 0.00 0.00 0.00 40 1007.5
20260509233246 64 270 7.0 9.0 0.00 0.00 0.00 39 1007.4
20260509232742 64 292 6.0 7.0 0.00 0.00 0.00 38 1007.4
20260509232239 64 221 9.0 12.0 0.00 0.00 0.00 38 1007.5
20260509231735 64 286 9.0 15.0 0.00 0.00 0.00 38 1007.3
20260509231232 64 230 7.0 10.0 0.00 0.00 0.00 38 1007.2
20260509230730 64 292 9.0 10.0 0.00 0.00 0.00 38 1007.3
20260509230227 64 265 8.0 12.0 0.00 0.00 0.00 38 1007.0
20260509225722 65 244 7.0 9.0 0.00 0.00 0.00 38 1007.1
20260509225218 66 253 5.0 9.0 0.00 0.00 0.00 36 1006.8
20260509224714 64 3 15.0 21.0 0.00 0.00 0.00 37 1006.9
20260509224211 64 295 16.0 19.0 0.00 0.00 0.00 38 1007.0
20260509223708 64 263 3.0 3.0 0.00 0.00 0.00 39 1006.8
20260509223205 65 278 7.0 12.0 0.00 0.00 0.00 39 1006.6
20260509222702 65 284 16.0 19.0 0.00 0.00 0.00 38 1006.7
20260509222157 66 287 9.0 12.0 0.00 0.00 0.00 37 1006.7
20260509221653 66 247 12.0 15.0 0.00 0.00 0.00 37 1006.6
20260509221149 67 289 14.0 19.0 0.00 0.00 0.00 37 1006.3
20260509220646 66 275 11.0 15.0 0.00 0.00 0.00 37 1006.2
20260509220142 66 253 11.0 12.0 0.00 0.00 0.00 37 1006.5
20260509215638 66 270 17.0 22.0 0.00 0.00 0.00 37 1006.3
20260509215135 67 271 11.0 14.0 0.00 0.00 0.00 36 1006.2
20260509214632 67 250 7.0 10.0 0.00 0.00 0.00 36 1005.9
20260509214128 67 287 18.0 22.0 0.00 0.00 0.00 35 1005.9
20260509213625 66 216 24.0 36.0 0.00 0.00 0.00 35 1005.8
20260509213121 66 256 16.0 21.0 0.00 0.00 0.00 35 1005.7
20260509212619 67 293 16.0 19.0 0.00 0.00 0.00 36 1005.9
20260509212116 67 285 9.0 12.0 0.00 0.00 0.00 37 1005.5
20260509211611 67 217 11.0 21.0 0.00 0.00 0.00 37 1005.7
20260509211108 66 278 7.0 10.0 0.00 0.00 0.00 38 1005.6
20260509210605 66 257 6.0 7.0 0.00 0.00 0.00 38 1005.8
20260509205602 67 291 5.0 7.0 0.00 0.00 0.00 37 1005.7
20260509205057 67 269 9.0 12.0 0.00 0.00 0.00 37 1005.7
20260509204553 66 291 9.0 10.0 0.00 0.00 0.00 37 1005.6
20260509204050 68 250 15.0 21.0 0.00 0.00 0.00 36 1005.9
20260509203546 67 286 16.0 24.0 0.00 0.00 0.00 36 1005.8
20260509203045 67 180 5.0 7.0 0.00 0.00 0.00 38 1005.7
20260509202544 67 217 5.0 7.0 0.00 0.00 0.00 39 1005.7
20260509202040 66 257 14.0 17.0 0.00 0.00 0.00 38 1005.6
20260509201536 65 311 7.0 14.0 0.00 0.00 0.00 40 1005.9
20260509201034 66 214 13.0 19.0 0.00 0.00 0.00 40 1005.6
20260509200533 65 254 7.0 7.0 0.00 0.00 0.00 41 1005.8
20260509200030 64 215 10.0 14.0 0.00 0.00 0.00 41 1005.7
20260509195526 63 282 4.0 5.0 0.00 0.00 0.00 43 1006.0
20260509195025 62 293 7.0 10.0 0.00 0.00 0.00 43 1006.2
20260509194520 62 207 11.0 15.0 0.00 0.00 0.00 44 1006.2
20260509194018 62 218 12.0 15.0 0.00 0.00 0.00 44 1006.5
20260509193518 62 259 7.0 9.0 0.00 0.00 0.00 47 1006.6
20260509193015 62 299 11.0 15.0 0.00 0.00 0.00 47 1006.7